User: anonymous   Login
Location: Caltech
(34.1382°N, 118.1253°W)
Time: 12:19:17
(UTC-08:00)
Language:

OAO 1 Rocket - Orbit

View from above orbital plane
View from above orbital plane
View from above satellite
View from above satellite

Ground track
Ground track

The orbit data is extracted from the following two-line orbital elements,

1  2144U 66031B   16341.90012527 +.00000053 +00000-0 +21557-4 0  9990
2  2144 035.0410 186.1232 0007620 060.1329 300.0118 14.42592149659908
Epoch (UTC): 06 December 2016 21:36:10
Eccentricity: 0.0007620
inclination: 35.0410°
perigee height: 744 km
apogee height: 755 km
right ascension of ascending node: 186.1232°
argument of perigee: 60.1329°
revolutions per day: 14.42592149
mean anomaly at epoch: 300.0118°
orbit number at epoch: 65990

The dashed part of the orbit path shows where the satellite is in the earth's shadow,  

DLR